This demonstration page uses our WeatherBlox Daily Observations layout. Learn more.

Left ArrowRight Arrow

34.16533, -84.80231

Hourly Observations for March 9, 2021

Temp ( °F °C ) Dew Point ( °F °C ) Humidity (%) Winds ( mph kmh ) Pressure ( in mb ) Visibility ( mi km ) Precip ( " mm )
12:53 am 00:53 Clear 35 1.7 28 -2.2 76 76 Calm 30.49 1032 10 16 0.00 0.00
1:53 am 01:53 Clear 35 1.7 27 -2.8 72 72 Calm 30.48 1032 10 16 0.00 0.00
2:53 am 02:53 Clear 33 0.6 26 -3.3 75 75 Calm 30.48 1032 10 16 0.00 0.00
3:53 am 03:53 Clear 33 0.6 27 -2.8 78 78 Calm 30.46 1032 10 16 0.00 0.00
4:53 am 04:53 Clear 31 -0.6 27 -2.8 85 85 Calm 30.47 1032 10 16 0.00 0.00
5:53 am 05:53 Clear 31 -0.6 27 -2.8 85 85 Calm 30.49 1033 10 16 0.00 0.00
6:53 am 06:53 Clear 31 -0.6 27 -2.8 85 85 Calm 30.52 1033 10 16 0.00 0.00
7:53 am 07:53 Sunny 36 2.2 30 -1.1 79 79 Calm 30.54 1034 10 16 0.00 0.00
8:53 am 08:53 Sunny 45 7.2 34 1.1 66 66 Calm 30.55 1035 8 13 0.00 0.00
9:53 am 09:53 Sunny 56 13.3 35 1.7 46 46 NNE 3 6 30.56 1035 10 16 0.00 0.00
10:53 am 10:53 Sunny 63 17.2 34 1.1 34 34 Calm 30.55 1034 10 16 0.00 0.00
11:53 am 11:53 Sunny 68 20 32 0 26 26 Calm 30.53 1034 10 16 0.00 0.00
12:53 pm 12:53 Sunny 69 20.6 29 -1.7 22 22 VRB 5 7 30.50 1033 10 16 0.00 0.00
1:53 pm 13:53 Sunny 70 21.1 31 -0.6 23 23 VRB 3 6 30.46 1032 10 16 0.00 0.00
2:53 pm 14:53 Sunny 71 21.7 28 -2.2 20 20 S 8 13 30.43 1031 10 16 0.00 0.00
3:53 pm 15:53 Sunny 71 21.7 25 -3.9 18 18 S 7 11 30.42 1030 10 16 0.00 0.00
4:53 pm 16:53 Sunny 70 21.1 26 -3.3 19 19 SSE 8 13 30.41 1030 10 16 0.00 0.00
5:53 pm 17:53 Sunny 68 20 25 -3.9 20 20 S 6 9 30.40 1030 10 16 0.00 0.00
6:53 pm 18:53 Clear 59 15 30 -1.1 33 33 SSE 3 6 30.42 1030 9 14 0.00 0.00
7:53 pm 19:53 Clear 52 11.1 32 0 47 47 S 5 7 30.42 1030 9 14 0.00 0.00
8:53 pm 20:53 Clear 48 8.9 33 0.6 56 56 Calm 30.42 1030 9 14 0.00 0.00
9:53 pm 21:53 Clear 47 8.3 32 0 56 56 Calm 30.42 1030 9 14 0.00 0.00
10:53 pm 22:53 Clear 42 5.6 33 0.6 71 71 Calm 30.42 1030 9 14 0.00 0.00
11:53 pm 23:53 Clear 41 5 32 0 70 70 Calm 30.42 1030 9 14 0.00 0.00

Powered by AerisWeather